Regional Weather Roundup
Issued by NWS

Home | Current Version | Previous Version | Graphics & Text | Print | Product List | Glossary On
Versions: 1 2 3 4 5 6 7 8 9 10 11 12 13 14 15 16 17 18 19 20 21 22 23 24 25 26 27 28 29 30 31 32 33 34 35 36 37 38 39 40 41 42 43 44 45 46 47 48 49 50
607
ASUS44 KLIX 311311
RWRLA
LOUISIANA WEATHER ROUNDUP
NATIONAL WEATHER SERVICE NEW ORLEANS LA
800 AM CDT TUE MAR 31 2015

NOTE: "FAIR" INDICATES FEW OR NO CLOUDS BELOW 12,000 FEET WITH NO
      SIGNIFICANT WEATHER AND/OR OBSTRUCTIONS TO VISIBILITY.
      SKY/WX - SKY CONDITION AND SIGNIFICANT WEATHER.
      TMP - AIR TEMPERATURE.    DP   - DEWPOINT TEMPERATURE.
      RH  - RELATIVE HUMIDITY.  PRES - PRESSURE.
      HX  - HEAT INDEX.         WCI  - WIND CHILL INDEX.

*  THESE STATIONS ARE NOT NWS OR FAA STATIONS AND ARE NOT UNDER
   NWS QUALITY CONTROL.

LAZ040-048-061>063-065-066-069-311400-
SOUTHEAST LOUISIANA

CITY           SKY/WX    TMP DP  RH WIND       PRES   REMARKS
N.O. AUDUBON     N/A     64  64 100 MISG        N/A
N.O. INTL ARPT PTSUNNY   64  62  93 S5        30.12R FOG
N.O. LAKEFRONT SUNNY     69  64  84 S5        30.13R
SLIDELL        MOSUNNY   61  60  97 CALM      30.12R
BATON ROUGE    SUNNY     65  63  93 SW6       30.12R
BOOTHVILLE     SUNNY     69  66  90 CALM      30.14R
BELLE CHASSE   FOG       63  62  97 CALM      30.12R VSB 1/4
BOGALUSA*        N/A     60  58  91 CALM      30.13R FOG
GALLIANO*      FOG       56  56  99 S6        30.13R VSB 1/2
NEW ROADS*     FAIR      62  62  98 S3        30.12R
GONZALES*      FAIR      60  60 100 CALM      30.12R
HAMMOND*       SUNNY     61  57  88 CALM      30.13S
HOUMA*         FOG       57  57 100 CALM      30.12R VSB 1/2
PORT FOURCHON* PTSUNNY   70  68  94 S3        30.16R

$$

LAZ041-044-053-054-311400-
SOUTHWEST LOUISIANA

CITY           SKY/WX    TMP DP  RH WIND       PRES   REMARKS
LAKE CHARLES   MOSUNNY   61  60  97 S3        30.09S
LAFAYETTE      MOSUNNY   62  61  96 CALM      30.11R
PATTERSON      CLOUDY    61  57  88 CALM      30.14R VSB 1/4
SALT POINT       N/A     64  64 100 SE3       30.11R
NEW IBERIA     FOG       63  62  97 CALM      30.12R VSB 1/4
CHENAULT AIRPK NOT AVBL

$$

LAZ027-028-311400-
CENTRAL LOUISIANA

CITY           SKY/WX    TMP DP  RH WIND       PRES   REMARKS
FORT POLK      CLOUDY    65  63  95 SW6       30.10R
ALEXANDRIA INT CLOUDY    65  62  90 SW7       30.10R
ALEXANDRIA     PTSUNNY   64  62  93 SW5       30.11R

$$

LAZ001-002-311400-
NORTHWEST LOUISIANA

CITY           SKY/WX    TMP DP  RH WIND       PRES   REMARKS
SHREVEPORT     MOSUNNY   64  61  90 S8        30.05S
BARKSDALE AFB  PTSUNNY   64  63  97 S8        30.05S
DTN SHREVEPORT PTSUNNY   64  60  87 S9        30.05S

$$

LAZ014-016-311400-
NORTHEAST LOUISIANA

CITY           SKY/WX    TMP DP  RH WIND       PRES   REMARKS
MONROE         CLOUDY    63  62  97 S7        30.09R
TALLULAH       PTSUNNY   63  60  90 SW6       30.09R

$$




USA.gov is the U.S. government's official web portal to all federal, state and local government web resources and services.